Time,TemperatureF,DewpointF,PressureIn,WindDirection,WindDirectionDegrees,WindSpeedMPH,WindSpeedGustMPH,Humidity,HourlyPrecipIn,Conditions,Clouds,dailyrainin,SoftwareType,DateUTC
2013-09-12 00:01:00,60.1,53.5,29.89,NW,315,0.0,0.0,79,0.00,CLR,CLR,0.10,WeatherDisplay:10.37,2013-09-12 04:01:00,
2013-09-12 00:02:00,60.1,53.5,29.89,NW,315,0.0,0.0,79,0.00,CLR,CLR,0.00,WeatherDisplay:10.37,2013-09-12 04:02:00,
2013-09-12 00:03:00,60.1,53.5,29.88,NW,315,0.0,0.0,79,0.00,CLR,CLR,0.00,WeatherDisplay:10.37,2013-09-12 04:03:00,
2013-09-12 00:07:00,59.9,53.4,29.89,WNW,292,0.0,0.0,79,0.00,CLR,CLR,0.00,WeatherDisplay:10.37,2013-09-12 04:07:00,
2013-09-12 00:12:00,59.9,53.4,29.89,WNW,292,0.0,0.0,79,0.00,CLR,CLR,0.00,WeatherDisplay:10.37,2013-09-12 04:12:00,
2013-09-12 00:17:00,59.7,53.2,29.89,NW,315,0.0,0.0,79,0.00,CLR,CLR,0.00,WeatherDisplay:10.37,2013-09-12 04:17:00,
2013-09-12 00:22:00,59.7,53.5,29.90,WNW,292,0.0,0.0,80,0.00,CLR,CLR,0.00,WeatherDisplay:10.37,2013-09-12 04:22:00,
2013-09-12 00:27:00,59.7,53.2,29.89,NW,315,1.1,1.1,79,0.00,CLR,CLR,0.00,WeatherDisplay:10.37,2013-09-12 04:27:00,
2013-09-12 00:29:00,59.7,53.2,29.90,West,270,0.0,0.0,79,0.00,CLR,CLR,0.00,WeatherDisplay:10.37,2013-09-12 04:29:00,
2013-09-12 00:34:00,59.9,53.4,29.90,NW,315,0.0,0.0,79,0.00,CLR,CLR,0.00,WeatherDisplay:10.37,2013-09-12 04:34:00,
2013-09-12 00:39:00,59.9,53.4,29.89,NW,315,0.0,0.0,79,0.00,CLR,CLR,0.00,WeatherDisplay:10.37,2013-09-12 04:39:00,
2013-09-12 00:44:00,59.9,53.4,29.89,West,270,0.0,0.0,79,0.00,CLR,CLR,0.00,WeatherDisplay:10.37,2013-09-12 04:44:00,
2013-09-12 00:47:00,59.9,53.4,29.89,NW,315,0.0,0.0,79,0.00,CLR,CLR,0.00,WeatherDisplay:10.37,2013-09-12 04:47:00,
2013-09-12 00:52:00,59.9,53.4,29.89,NW,315,0.0,0.0,79,0.00,CLR,CLR,0.00,WeatherDisplay:10.37,2013-09-12 04:52:00,
2013-09-12 00:57:00,59.9,53.4,29.89,NW,315,1.1,1.1,79,0.00,CLR,CLR,0.00,WeatherDisplay:10.37,2013-09-12 04:57:00,
2013-09-12 01:02:00,59.9,53.4,29.89,NW,315,1.1,1.1,79,0.00,CLR,CLR,0.00,WeatherDisplay:10.37,2013-09-12 05:02:00,
2013-09-12 01:07:00,59.7,53.2,29.90,WNW,292,1.1,1.1,79,0.00,CLR,CLR,0.00,WeatherDisplay:10.37,2013-09-12 05:07:00,
2013-09-12 01:12:00,59.9,53.0,29.89,WNW,292,0.0,0.0,78,0.00,CLR,CLR,0.00,WeatherDisplay:10.37,2013-09-12 05:12:00,
2013-09-12 01:17:00,59.9,53.4,29.90,NW,315,1.3,1.3,79,0.00,CLR,CLR,0.00,WeatherDisplay:10.37,2013-09-12 05:17:00,
2013-09-12 01:22:00,59.7,52.8,29.90,WNW,292,1.1,0.0,78,0.00,CLR,CLR,0.00,WeatherDisplay:10.37,2013-09-12 05:22:00,
2013-09-12 01:27:00,59.7,52.8,29.90,NW,315,0.0,0.0,78,0.00,CLR,CLR,0.00,WeatherDisplay:10.37,2013-09-12 05:27:00,
2013-09-12 01:32:00,59.7,53.2,29.90,NW,315,1.1,1.1,79,0.00,CLR,CLR,0.00,WeatherDisplay:10.37,2013-09-12 05:32:00,
2013-09-12 01:37:00,59.5,53.0,29.90,WNW,292,0.0,0.0,79,0.00,CLR,CLR,0.00,WeatherDisplay:10.37,2013-09-12 05:37:00,
2013-09-12 01:42:00,59.5,53.0,29.90,WNW,292,0.0,0.0,79,0.00,CLR,CLR,0.00,WeatherDisplay:10.37,2013-09-12 05:42:00,
2013-09-12 01:47:00,59.4,53.2,29.90,NW,315,0.0,0.0,80,0.00,CLR,CLR,0.00,WeatherDisplay:10.37,2013-09-12 05:47:00,
2013-09-12 01:52:00,59.2,53.0,29.90,NW,315,0.0,0.0,80,0.00,CLR,CLR,0.00,WeatherDisplay:10.37,2013-09-12 05:52:00,
2013-09-12 01:57:00,58.8,52.7,29.90,WNW,292,0.0,0.0,80,0.00,CLR,CLR,0.00,WeatherDisplay:10.37,2013-09-12 05:57:00,
2013-09-12 02:02:00,58.8,52.7,29.91,WNW,292,0.0,0.0,80,0.00,CLR,CLR,0.00,WeatherDisplay:10.37,2013-09-12 06:02:00,
2013-09-12 02:07:00,58.8,53.0,29.91,WNW,292,0.0,0.0,81,0.00,CLR,CLR,0.00,WeatherDisplay:10.37,2013-09-12 06:07:00,
2013-09-12 02:12:00,58.8,53.0,29.91,WNW,292,1.1,1.1,81,0.00,CLR,CLR,0.00,WeatherDisplay:10.37,2013-09-12 06:12:00,
2013-09-12 02:17:00,58.6,52.8,29.91,WNW,292,0.0,0.0,81,0.00,CLR,CLR,0.00,WeatherDisplay:10.37,2013-09-12 06:17:00,
2013-09-12 02:22:00,58.6,53.2,29.91,WNW,292,0.0,0.0,82,0.00,CLR,CLR,0.00,WeatherDisplay:10.37,2013-09-12 06:22:00,
2013-09-12 02:27:00,58.5,53.0,29.91,WNW,292,0.0,0.0,82,0.00,CLR,CLR,0.00,WeatherDisplay:10.37,2013-09-12 06:27:00,
2013-09-12 02:32:00,58.3,52.8,29.91,WNW,292,0.0,0.0,82,0.00,CLR,CLR,0.00,WeatherDisplay:10.37,2013-09-12 06:32:00,
2013-09-12 02:37:00,58.1,53.0,29.92,NW,315,0.0,0.0,83,0.00,CLR,CLR,0.00,WeatherDisplay:10.37,2013-09-12 06:37:00,
2013-09-12 02:42:00,57.9,52.8,29.92,NW,315,1.1,1.1,83,0.00,CLR,CLR,0.00,WeatherDisplay:10.37,2013-09-12 06:42:00,
2013-09-12 02:47:00,57.7,52.6,29.92,WNW,292,0.0,0.0,83,0.00,CLR,CLR,0.00,WeatherDisplay:10.37,2013-09-12 06:47:00,
2013-09-12 02:52:00,57.6,52.4,29.92,WNW,292,0.0,0.0,83,0.00,CLR,CLR,0.00,WeatherDisplay:10.37,2013-09-12 06:52:00,
2013-09-12 02:57:00,57.6,52.4,29.92,WNW,292,0.0,0.0,83,0.00,CLR,CLR,0.00,WeatherDisplay:10.37,2013-09-12 06:57:00,
2013-09-12 03:02:00,57.6,52.8,29.92,WNW,292,0.0,0.0,84,0.00,CLR,CLR,0.00,WeatherDisplay:10.37,2013-09-12 07:02:00,
2013-09-12 03:07:00,57.4,52.6,29.92,WNW,292,0.0,0.0,84,0.00,CLR,CLR,0.00,WeatherDisplay:10.37,2013-09-12 07:07:00,
2013-09-12 03:12:00,57.4,52.6,29.93,WNW,292,0.0,0.0,84,0.00,CLR,CLR,0.00,WeatherDisplay:10.37,2013-09-12 07:12:00,
2013-09-12 03:17:00,57.2,52.4,29.92,WNW,292,0.0,0.0,84,0.00,CLR,CLR,0.00,WeatherDisplay:10.37,2013-09-12 07:17:00,
2013-09-12 03:22:00,57.0,52.6,29.92,WNW,292,0.0,0.0,85,0.00,CLR,CLR,0.00,WeatherDisplay:10.37,2013-09-12 07:22:00,
2013-09-12 03:27:00,57.0,52.6,29.92,WNW,292,0.0,0.0,85,0.00,CLR,CLR,0.00,WeatherDisplay:10.37,2013-09-12 07:27:00,
2013-09-12 03:32:00,57.0,52.6,29.93,WNW,292,0.0,0.0,85,0.00,CLR,CLR,0.00,WeatherDisplay:10.37,2013-09-12 07:32:00,
2013-09-12 03:37:00,57.0,52.6,29.93,WNW,292,0.0,0.0,85,0.00,CLR,CLR,0.00,WeatherDisplay:10.37,2013-09-12 07:37:00,
2013-09-12 03:42:00,57.0,52.6,29.93,WNW,292,0.0,0.0,85,0.00,CLR,CLR,0.00,WeatherDisplay:10.37,2013-09-12 07:42:00,
2013-09-12 03:47:00,57.0,52.9,29.93,WNW,292,0.0,0.0,86,0.00,CLR,CLR,0.00,WeatherDisplay:10.37,2013-09-12 07:47:00,
2013-09-12 03:52:00,57.4,53.2,29.93,WNW,292,0.0,0.0,86,0.00,CLR,CLR,0.00,WeatherDisplay:10.37,2013-09-12 07:52:00,
2013-09-12 03:57:00,57.4,53.2,29.93,WNW,292,0.0,0.0,86,0.00,CLR,CLR,0.00,WeatherDisplay:10.37,2013-09-12 07:57:00,
2013-09-12 04:02:00,57.4,53.2,29.92,WNW,292,0.0,0.0,86,0.00,CLR,CLR,0.00,WeatherDisplay:10.37,2013-09-12 08:02:00,
2013-09-12 04:07:00,57.6,53.4,29.93,WNW,292,0.0,0.0,86,0.00,CLR,CLR,0.00,WeatherDisplay:10.37,2013-09-12 08:07:00,
2013-09-12 04:12:00,57.7,53.6,29.93,WNW,292,0.0,0.0,86,0.00,CLR,CLR,0.00,WeatherDisplay:10.37,2013-09-12 08:12:00,
2013-09-12 04:17:00,57.7,53.6,29.93,WNW,292,0.0,0.0,86,0.00,CLR,CLR,0.00,WeatherDisplay:10.37,2013-09-12 08:17:00,
2013-09-12 04:22:00,57.9,53.8,29.93,WNW,292,0.0,0.0,86,0.00,CLR,CLR,0.00,WeatherDisplay:10.37,2013-09-12 08:22:00,
2013-09-12 04:27:00,57.9,53.8,29.93,WNW,292,0.0,0.0,86,0.00,CLR,CLR,0.00,WeatherDisplay:10.37,2013-09-12 08:27:00,
2013-09-12 04:32:00,57.9,53.8,29.93,WNW,292,0.0,0.0,86,0.00,CLR,CLR,0.00,WeatherDisplay:10.37,2013-09-12 08:32:00,
2013-09-12 04:37:00,57.9,53.8,29.93,NW,315,0.0,0.0,86,0.00,CLR,CLR,0.00,WeatherDisplay:10.37,2013-09-12 08:37:00,
2013-09-12 04:42:00,57.9,53.8,29.93,NW,315,0.0,0.0,86,0.00,CLR,CLR,0.00,WeatherDisplay:10.37,2013-09-12 08:42:00,
2013-09-12 04:47:00,58.1,53.9,29.93,NW,315,0.0,0.0,86,0.00,CLR,CLR,0.00,WeatherDisplay:10.37,2013-09-12 08:47:00,
2013-09-12 04:52:00,58.1,53.9,29.93,NW,315,0.0,0.0,86,0.00,CLR,CLR,0.00,WeatherDisplay:10.37,2013-09-12 08:52:00,
2013-09-12 04:57:00,58.3,54.1,29.93,NW,315,0.0,0.0,86,0.00,CLR,CLR,0.00,WeatherDisplay:10.37,2013-09-12 08:57:00,
2013-09-12 05:02:00,58.3,54.1,29.93,NW,315,0.0,0.0,86,0.00,CLR,CLR,0.00,WeatherDisplay:10.37,2013-09-12 09:02:00,
2013-09-12 05:07:00,58.3,54.1,29.94,NW,315,0.0,0.0,86,0.00,CLR,CLR,0.00,WeatherDisplay:10.37,2013-09-12 09:07:00,
2013-09-12 05:12:00,58.3,53.8,29.93,NW,315,0.0,0.0,85,0.00,CLR,CLR,0.00,WeatherDisplay:10.37,2013-09-12 09:12:00,
2013-09-12 05:17:00,58.3,53.8,29.94,NW,315,0.0,0.0,85,0.00,CLR,CLR,0.00,WeatherDisplay:10.37,2013-09-12 09:17:00,
2013-09-12 05:22:00,58.3,53.8,29.94,NW,315,0.0,0.0,85,0.00,CLR,CLR,0.00,WeatherDisplay:10.37,2013-09-12 09:22:00,
2013-09-12 05:27:00,58.3,53.8,29.94,NW,315,0.0,0.0,85,0.00,CLR,CLR,0.00,WeatherDisplay:10.37,2013-09-12 09:27:00,
2013-09-12 05:32:00,58.3,53.8,29.94,NW,315,0.0,0.0,85,0.00,CLR,CLR,0.00,WeatherDisplay:10.37,2013-09-12 09:32:00,
2013-09-12 05:37:00,58.1,53.6,29.94,NW,315,0.0,0.0,85,0.00,CLR,CLR,0.00,WeatherDisplay:10.37,2013-09-12 09:37:00,
2013-09-12 05:42:00,58.1,53.6,29.95,NW,315,0.0,0.0,85,0.00,CLR,CLR,0.00,WeatherDisplay:10.37,2013-09-12 09:42:00,
2013-09-12 05:47:00,58.1,53.6,29.95,WNW,292,0.0,0.0,85,0.00,CLR,CLR,0.00,WeatherDisplay:10.37,2013-09-12 09:47:00,
2013-09-12 05:52:00,57.9,53.4,29.95,NW,315,0.0,0.0,85,0.00,CLR,CLR,0.00,WeatherDisplay:10.37,2013-09-12 09:52:00,
2013-09-12 05:57:00,57.9,53.1,29.95,WNW,292,0.0,0.0,84,0.00,CLR,CLR,0.00,WeatherDisplay:10.37,2013-09-12 09:57:00,
2013-09-12 06:02:00,57.9,53.1,29.95,NW,315,0.0,0.0,84,0.00,CLR,CLR,0.00,WeatherDisplay:10.37,2013-09-12 10:02:00,
2013-09-12 06:07:00,57.7,52.9,29.96,WNW,292,0.0,0.0,84,0.00,CLR,CLR,0.00,WeatherDisplay:10.37,2013-09-12 10:07:00,
2013-09-12 06:12:00,57.7,52.9,29.96,WNW,292,0.0,0.0,84,0.00,CLR,CLR,0.00,WeatherDisplay:10.37,2013-09-12 10:12:00,
2013-09-12 06:17:00,57.6,52.8,29.96,NW,315,0.0,0.0,84,0.00,CLR,CLR,0.00,WeatherDisplay:10.37,2013-09-12 10:17:00,
2013-09-12 06:22:00,57.4,52.6,29.96,NW,315,0.0,0.0,84,0.00,CLR,CLR,0.00,WeatherDisplay:10.37,2013-09-12 10:22:00,
2013-09-12 06:28:00,57.4,52.6,29.96,SW,225,0.0,0.0,84,0.00,CLR,CLR,0.00,WeatherDisplay:10.37,2013-09-12 10:28:00,
2013-09-12 06:33:00,57.2,52.4,29.96,NW,315,0.0,0.0,84,0.00,CLR,CLR,0.00,WeatherDisplay:10.37,2013-09-12 10:33:00,
2013-09-12 06:38:00,57.0,52.2,29.96,NW,315,0.0,0.0,84,0.00,CLR,CLR,0.00,WeatherDisplay:10.37,2013-09-12 10:38:00,
2013-09-12 06:43:00,57.0,52.2,29.96,NW,315,0.0,0.0,84,0.00,CLR,CLR,0.00,WeatherDisplay:10.37,2013-09-12 10:43:00,
2013-09-12 06:48:00,57.0,51.9,29.96,NW,315,0.0,0.0,83,0.00,CLR,CLR,0.00,WeatherDisplay:10.37,2013-09-12 10:48:00,
2013-09-12 06:53:00,56.8,51.7,29.96,NW,315,0.0,0.0,83,0.00,CLR,CLR,0.00,WeatherDisplay:10.37,2013-09-12 10:53:00,
2013-09-12 06:58:00,56.7,51.6,29.96,NW,315,0.0,0.0,83,0.00,CLR,CLR,0.00,WeatherDisplay:10.37,2013-09-12 10:58:00,
2013-09-12 07:03:00,56.5,51.4,29.96,WNW,292,0.0,0.0,83,0.00,CLR,CLR,0.00,WeatherDisplay:10.37,2013-09-12 11:03:00,
2013-09-12 07:08:00,56.5,51.4,29.96,WNW,292,0.0,0.0,83,0.00,CLR,CLR,0.00,WeatherDisplay:10.37,2013-09-12 11:08:00,
2013-09-12 07:13:00,56.3,51.2,29.97,WNW,292,0.0,0.0,83,0.00,CLR,CLR,0.00,WeatherDisplay:10.37,2013-09-12 11:13:00,
2013-09-12 07:18:00,56.1,51.0,29.96,WNW,292,0.0,0.0,83,0.00,CLR,CLR,0.00,WeatherDisplay:10.37,2013-09-12 11:18:00,
2013-09-12 07:23:00,56.1,51.0,29.96,NW,315,0.0,0.0,83,0.00,CLR,CLR,0.00,WeatherDisplay:10.37,2013-09-12 11:23:00,
2013-09-12 07:28:00,55.9,50.9,29.97,WNW,292,0.0,0.0,83,0.00,CLR,CLR,0.00,WeatherDisplay:10.37,2013-09-12 11:28:00,
2013-09-12 07:33:00,55.9,50.9,29.97,NW,315,0.0,0.0,83,0.00,CLR,CLR,0.00,WeatherDisplay:10.37,2013-09-12 11:33:00,
2013-09-12 07:38:00,55.9,50.9,29.97,NW,315,0.0,0.0,83,0.00,CLR,CLR,0.00,WeatherDisplay:10.37,2013-09-12 11:38:00,
2013-09-12 07:43:00,55.9,50.9,29.97,NW,315,0.0,0.0,83,0.00,CLR,CLR,0.00,WeatherDisplay:10.37,2013-09-12 11:43:00,
2013-09-12 07:48:00,56.1,51.0,29.97,NW,315,1.1,0.0,83,0.00,CLR,CLR,0.00,WeatherDisplay:10.37,2013-09-12 11:48:00,
2013-09-12 07:53:00,55.9,50.9,29.97,NW,315,0.0,0.0,83,0.00,CLR,CLR,0.00,WeatherDisplay:10.37,2013-09-12 11:53:00,
2013-09-12 07:58:00,55.9,50.9,29.97,NW,315,0.0,0.0,83,0.00,CLR,CLR,0.00,WeatherDisplay:10.37,2013-09-12 11:58:00,
2013-09-12 08:03:00,56.1,51.0,29.97,NW,315,0.0,0.0,83,0.00,CLR,CLR,0.00,WeatherDisplay:10.37,2013-09-12 12:03:00,
2013-09-12 08:08:00,55.9,50.9,29.97,NNW,338,0.0,0.0,83,0.00,CLR,CLR,0.00,WeatherDisplay:10.37,2013-09-12 12:08:00,
2013-09-12 08:13:00,56.1,51.0,29.98,NW,315,0.0,0.0,83,0.00,CLR,CLR,0.00,WeatherDisplay:10.37,2013-09-12 12:13:00,
2013-09-12 08:18:00,56.1,51.0,29.98,NW,315,0.0,0.0,83,0.00,CLR,CLR,0.00,WeatherDisplay:10.37,2013-09-12 12:18:00,
2013-09-12 08:23:00,56.1,51.0,29.98,WNW,292,0.0,0.0,83,0.00,CLR,CLR,0.00,WeatherDisplay:10.37,2013-09-12 12:23:00,
2013-09-12 08:28:00,56.3,51.2,29.98,NW,315,0.0,0.0,83,0.00,CLR,CLR,0.00,WeatherDisplay:10.37,2013-09-12 12:28:00,
2013-09-12 08:33:00,56.5,51.1,29.98,NW,315,0.0,0.0,82,0.00,CLR,CLR,0.00,WeatherDisplay:10.37,2013-09-12 12:33:00,
2013-09-12 08:38:00,56.5,51.1,29.98,NW,315,0.0,0.0,82,0.00,CLR,CLR,0.00,WeatherDisplay:10.37,2013-09-12 12:38:00,
2013-09-12 08:43:00,56.5,51.1,29.98,NW,315,0.0,0.0,82,0.00,CLR,CLR,0.00,WeatherDisplay:10.37,2013-09-12 12:43:00,
2013-09-12 08:48:00,56.5,51.1,29.98,NW,315,0.0,0.0,82,0.00,CLR,CLR,0.00,WeatherDisplay:10.37,2013-09-12 12:48:00,
2013-09-12 08:53:00,56.5,51.1,29.98,WNW,292,0.0,0.0,82,0.00,CLR,CLR,0.00,WeatherDisplay:10.37,2013-09-12 12:53:00,
2013-09-12 08:59:00,56.5,51.1,29.98,NW,315,0.0,0.0,82,0.00,CLR,CLR,0.00,WeatherDisplay:10.37,2013-09-12 12:59:00,
2013-09-12 09:04:00,56.5,51.1,29.98,NW,315,1.1,0.0,82,0.00,CLR,CLR,0.00,WeatherDisplay:10.37,2013-09-12 13:04:00,
2013-09-12 09:09:00,56.8,51.1,29.98,NNE,22,0.0,0.0,81,0.00,CLR,CLR,0.00,WeatherDisplay:10.37,2013-09-12 13:09:00,
2013-09-12 09:14:00,57.0,50.9,29.98,NW,315,0.0,0.0,80,0.00,CLR,CLR,0.00,WeatherDisplay:10.37,2013-09-12 13:14:00,
2013-09-12 09:19:00,57.0,50.9,29.98,WNW,292,0.0,0.0,80,0.00,CLR,CLR,0.00,WeatherDisplay:10.37,2013-09-12 13:19:00,
2013-09-12 09:24:00,57.0,50.6,29.98,NW,315,1.1,1.1,79,0.00,CLR,CLR,0.00,WeatherDisplay:10.37,2013-09-12 13:24:00,
2013-09-12 09:29:00,57.0,50.6,29.98,NW,315,0.0,0.0,79,0.00,CLR,CLR,0.00,WeatherDisplay:10.37,2013-09-12 13:29:00,
2013-09-12 09:34:00,57.0,50.9,29.99,West,270,1.1,1.1,80,0.00,CLR,CLR,0.00,WeatherDisplay:10.37,2013-09-12 13:34:00,
2013-09-12 09:39:00,57.0,50.6,29.99,NW,315,0.0,0.0,79,0.00,CLR,CLR,0.00,WeatherDisplay:10.37,2013-09-12 13:39:00,
2013-09-12 09:45:00,57.0,50.6,29.98,NNW,338,1.1,1.1,79,0.00,CLR,CLR,0.00,WeatherDisplay:10.37,2013-09-12 13:45:00,
2013-09-12 09:50:00,57.4,50.6,29.99,NW,315,1.1,0.0,78,0.00,CLR,CLR,0.00,WeatherDisplay:10.37,2013-09-12 13:50:00,
2013-09-12 09:55:00,57.0,50.2,29.99,NW,315,1.1,0.0,78,0.00,CLR,CLR,0.00,WeatherDisplay:10.37,2013-09-12 13:55:00,
2013-09-12 10:00:00,57.0,50.2,29.99,WNW,292,1.1,1.1,78,0.00,CLR,CLR,0.00,WeatherDisplay:10.37,2013-09-12 14:00:00,
2013-09-12 10:05:00,57.0,50.2,29.99,NW,315,1.1,1.1,78,0.00,CLR,CLR,0.00,WeatherDisplay:10.37,2013-09-12 14:05:00,
2013-09-12 10:10:00,57.0,50.2,29.99,West,270,0.0,0.0,78,0.00,CLR,CLR,0.00,WeatherDisplay:10.37,2013-09-12 14:10:00,
2013-09-12 10:15:00,57.0,50.2,29.99,WNW,292,2.3,2.3,78,0.00,CLR,CLR,0.00,WeatherDisplay:10.37,2013-09-12 14:15:00,
2013-09-12 10:20:00,57.4,50.6,30.00,NW,315,0.0,0.0,78,0.00,CLR,CLR,0.00,WeatherDisplay:10.37,2013-09-12 14:20:00,
2013-09-12 10:25:00,57.6,50.8,30.00,WNW,292,1.1,1.1,78,0.00,CLR,CLR,0.00,WeatherDisplay:10.37,2013-09-12 14:25:00,
2013-09-12 10:30:00,57.4,50.6,30.00,NW,315,0.0,0.0,78,0.00,CLR,CLR,0.00,WeatherDisplay:10.37,2013-09-12 14:30:00,
2013-09-12 10:36:00,57.4,50.2,30.00,WNW,292,0.0,0.0,77,0.00,CLR,CLR,0.00,WeatherDisplay:10.37,2013-09-12 14:36:00,
2013-09-12 10:41:00,57.0,49.9,30.00,NW,315,1.1,1.1,77,0.00,CLR,CLR,0.00,WeatherDisplay:10.37,2013-09-12 14:41:00,
2013-09-12 10:46:00,57.0,49.9,30.00,West,270,1.1,1.1,77,0.00,CLR,CLR,0.00,WeatherDisplay:10.37,2013-09-12 14:46:00,
2013-09-12 10:51:00,57.0,49.9,30.01,WNW,292,1.1,1.1,77,0.00,CLR,CLR,0.00,WeatherDisplay:10.37,2013-09-12 14:51:00,
2013-09-12 10:56:00,57.4,50.6,30.01,NW,315,0.0,0.0,78,0.00,CLR,CLR,0.00,WeatherDisplay:10.37,2013-09-12 14:56:00,
2013-09-12 11:01:00,57.4,50.6,30.01,NW,315,2.3,2.3,78,0.00,CLR,CLR,0.00,WeatherDisplay:10.37,2013-09-12 15:01:00,
2013-09-12 11:06:00,56.8,50.1,30.01,WNW,292,2.3,2.3,78,0.00,CLR,CLR,0.00,WeatherDisplay:10.37,2013-09-12 15:06:00,
2013-09-12 11:12:00,56.8,50.1,30.01,NNE,22,1.1,1.1,78,0.00,CLR,CLR,0.00,WeatherDisplay:10.37,2013-09-12 15:12:00,
2013-09-12 11:17:00,56.5,50.0,30.01,NW,315,0.0,0.0,79,0.00,CLR,CLR,0.00,WeatherDisplay:10.37,2013-09-12 15:17:00,
2013-09-12 11:22:00,56.3,49.9,30.01,NW,315,1.1,1.3,79,0.00,CLR,CLR,0.00,WeatherDisplay:10.37,2013-09-12 15:22:00,
2013-09-12 11:27:00,56.1,50.0,30.02,WNW,292,3.5,3.5,80,0.00,CLR,CLR,0.00,WeatherDisplay:10.37,2013-09-12 15:27:00,
2013-09-12 11:32:00,56.1,49.7,30.02,NW,315,1.1,1.1,79,0.00,CLR,CLR,0.00,WeatherDisplay:10.37,2013-09-12 15:32:00,
2013-09-12 11:37:00,55.9,49.5,30.02,WNW,292,0.0,0.0,79,0.00,CLR,CLR,0.00,WeatherDisplay:10.37,2013-09-12 15:37:00,
2013-09-12 11:42:00,55.9,49.5,30.02,NNW,338,0.0,0.0,79,0.00,CLR,CLR,0.00,WeatherDisplay:10.37,2013-09-12 15:42:00,
2013-09-12 11:47:00,56.1,49.7,30.02,WNW,292,1.1,1.1,79,0.00,CLR,CLR,0.00,WeatherDisplay:10.37,2013-09-12 15:47:00,
2013-09-12 11:52:00,56.3,49.9,30.02,West,270,0.0,0.0,79,0.00,CLR,CLR,0.00,WeatherDisplay:10.37,2013-09-12 15:52:00,
2013-09-12 11:58:00,56.3,49.5,30.02,NW,315,1.3,1.3,78,0.00,CLR,CLR,0.00,WeatherDisplay:10.37,2013-09-12 15:58:00,
2013-09-12 12:03:00,55.9,49.2,30.03,NW,315,1.1,1.1,78,0.00,CLR,CLR,0.00,WeatherDisplay:10.37,2013-09-12 16:03:00,
2013-09-12 12:09:00,55.6,48.8,30.03,NW,315,2.9,2.9,78,0.00,CLR,CLR,0.00,WeatherDisplay:10.37,2013-09-12 16:09:00,
2013-09-12 12:14:00,55.2,48.5,30.03,WNW,292,1.1,1.1,78,0.00,CLR,CLR,0.00,WeatherDisplay:10.37,2013-09-12 16:14:00,
2013-09-12 12:19:00,54.7,48.0,30.03,NW,315,2.3,2.3,78,0.00,CLR,CLR,0.00,WeatherDisplay:10.37,2013-09-12 16:19:00,
2013-09-12 12:24:00,54.7,48.0,30.03,WNW,292,2.3,2.3,78,0.00,CLR,CLR,0.00,WeatherDisplay:10.37,2013-09-12 16:24:00,
2013-09-12 12:29:00,54.9,48.5,30.03,WNW,292,1.1,1.1,79,0.00,CLR,CLR,0.00,WeatherDisplay:10.37,2013-09-12 16:29:00,
2013-09-12 12:34:00,55.2,48.5,30.03,NW,315,3.5,3.5,78,0.00,CLR,CLR,0.00,WeatherDisplay:10.37,2013-09-12 16:34:00,
2013-09-12 12:39:00,55.4,48.3,30.03,WNW,292,1.1,1.1,77,0.00,CLR,CLR,0.00,WeatherDisplay:10.37,2013-09-12 16:39:00,
2013-09-12 12:44:00,55.6,48.5,30.03,WNW,292,1.6,1.6,77,0.00,CLR,CLR,0.00,WeatherDisplay:10.37,2013-09-12 16:44:00,
2013-09-12 12:49:00,55.6,48.5,30.04,WNW,292,0.0,0.0,77,0.00,CLR,CLR,0.00,WeatherDisplay:10.37,2013-09-12 16:49:00,
2013-09-12 12:55:00,55.4,48.3,30.04,NW,315,2.3,0.0,77,0.00,CLR,CLR,0.00,WeatherDisplay:10.37,2013-09-12 16:55:00,
2013-09-12 12:59:00,55.2,48.1,30.04,NNW,338,1.3,0.0,77,0.00,CLR,CLR,0.00,WeatherDisplay:10.37,2013-09-12 16:59:00,
2013-09-12 13:04:00,55.0,48.3,30.04,West,270,1.3,1.3,78,0.00,CLR,CLR,0.00,WeatherDisplay:10.37,2013-09-12 17:04:00,
2013-09-12 13:09:00,54.9,48.1,30.04,WNW,292,1.1,1.1,78,0.00,CLR,CLR,0.00,WeatherDisplay:10.37,2013-09-12 17:09:00,
2013-09-12 13:15:00,54.7,48.0,30.05,WNW,292,1.1,1.1,78,0.00,CLR,CLR,0.00,WeatherDisplay:10.37,2013-09-12 17:15:00,
2013-09-12 13:20:00,54.9,48.1,30.04,NW,315,2.3,2.3,78,0.00,CLR,CLR,0.00,WeatherDisplay:10.37,2013-09-12 17:20:00,
2013-09-12 13:25:00,54.7,47.6,30.04,WNW,292,1.1,1.1,77,0.00,CLR,CLR,0.00,WeatherDisplay:10.37,2013-09-12 17:25:00,
2013-09-12 13:30:00,54.9,47.8,30.05,WNW,292,1.3,1.3,77,0.00,CLR,CLR,0.00,WeatherDisplay:10.37,2013-09-12 17:30:00,
2013-09-12 13:35:00,54.9,47.8,30.05,NW,315,1.1,1.1,77,0.00,CLR,CLR,0.00,WeatherDisplay:10.37,2013-09-12 17:35:00,
2013-09-12 13:40:00,55.0,48.0,30.05,WNW,292,0.0,1.5,77,0.00,CLR,CLR,0.00,WeatherDisplay:10.37,2013-09-12 17:40:00,
2013-09-12 13:45:00,54.7,47.6,30.05,WNW,292,1.1,1.1,77,0.00,CLR,CLR,0.00,WeatherDisplay:10.37,2013-09-12 17:45:00,
2013-09-12 13:50:00,54.9,47.8,30.05,WNW,292,2.0,2.0,77,0.00,CLR,CLR,0.00,WeatherDisplay:10.37,2013-09-12 17:50:00,
2013-09-12 13:55:00,55.0,48.0,30.05,West,270,0.0,0.0,77,0.00,CLR,CLR,0.00,WeatherDisplay:10.37,2013-09-12 17:55:00,
2013-09-12 14:00:00,55.0,48.0,30.05,NW,315,3.8,3.8,77,0.00,CLR,CLR,0.00,WeatherDisplay:10.37,2013-09-12 18:00:00,
2013-09-12 14:05:00,55.2,47.8,30.05,NW,315,2.3,2.3,76,0.00,CLR,CLR,0.00,WeatherDisplay:10.37,2013-09-12 18:05:00,
2013-09-12 14:10:00,55.2,47.8,30.05,NW,315,1.3,1.3,76,0.00,CLR,CLR,0.00,WeatherDisplay:10.37,2013-09-12 18:10:00,
2013-09-12 14:15:00,55.4,48.0,30.05,NW,315,3.6,3.6,76,0.00,CLR,CLR,0.00,WeatherDisplay:10.37,2013-09-12 18:15:00,
2013-09-12 14:21:00,55.4,47.2,30.05,NW,315,2.3,2.3,74,0.00,CLR,CLR,0.00,WeatherDisplay:10.37,2013-09-12 18:21:00,
2013-09-12 14:26:00,55.2,47.4,30.05,North,0,1.3,1.3,75,0.00,CLR,CLR,0.00,WeatherDisplay:10.37,2013-09-12 18:26:00,
2013-09-12 14:31:00,55.0,46.9,30.05,WNW,292,2.5,2.5,74,0.00,CLR,CLR,0.00,WeatherDisplay:10.37,2013-09-12 18:31:00,
2013-09-12 14:36:00,54.9,47.1,30.06,WNW,292,0.9,0.9,75,0.00,CLR,CLR,0.00,WeatherDisplay:10.37,2013-09-12 18:36:00,
2013-09-12 14:42:00,55.0,47.6,30.06,WNW,292,1.1,1.1,76,0.00,CLR,CLR,0.00,WeatherDisplay:10.37,2013-09-12 18:42:00,
2013-09-12 14:47:00,55.2,47.8,30.06,ENE,68,0.0,0.0,76,0.00,CLR,CLR,0.00,WeatherDisplay:10.37,2013-09-12 18:47:00,
2013-09-12 14:52:00,55.0,48.0,30.06,West,270,1.1,1.1,77,0.00,CLR,CLR,0.00,WeatherDisplay:10.37,2013-09-12 18:52:00,
2013-09-12 14:57:00,54.7,48.0,30.06,NW,315,1.3,1.3,78,0.00,CLR,CLR,0.00,WeatherDisplay:10.37,2013-09-12 18:57:00,
2013-09-12 15:03:00,54.3,47.9,30.06,NW,315,1.3,1.3,79,0.00,CLR,CLR,0.00,WeatherDisplay:10.37,2013-09-12 19:03:00,
2013-09-12 15:08:00,54.3,47.9,30.06,NNW,338,2.9,0.0,79,0.00,CLR,CLR,0.00,WeatherDisplay:10.37,2013-09-12 19:08:00,
2013-09-12 15:13:00,54.0,47.9,30.06,WNW,292,1.1,1.1,80,0.00,CLR,CLR,0.00,WeatherDisplay:10.37,2013-09-12 19:13:00,
2013-09-12 15:18:00,53.8,47.8,30.06,NNW,338,1.3,1.3,80,0.00,CLR,CLR,0.00,WeatherDisplay:10.37,2013-09-12 19:18:00,
2013-09-12 15:23:00,53.8,47.8,30.06,WNW,292,0.0,0.6,80,0.00,CLR,CLR,0.00,WeatherDisplay:10.37,2013-09-12 19:23:00,
2013-09-12 15:28:00,53.8,47.8,30.06,WNW,292,1.6,1.6,80,0.00,CLR,CLR,0.00,WeatherDisplay:10.37,2013-09-12 19:28:00,
2013-09-12 15:33:00,53.8,47.8,30.06,WNW,292,1.1,1.1,80,0.00,CLR,CLR,0.00,WeatherDisplay:10.37,2013-09-12 19:33:00,
2013-09-12 15:39:00,53.6,47.6,30.06,WNW,292,1.6,1.6,80,0.00,CLR,CLR,0.00,WeatherDisplay:10.37,2013-09-12 19:39:00,
2013-09-12 15:44:00,53.8,47.8,30.07,WNW,292,0.0,0.0,80,0.00,CLR,CLR,0.00,WeatherDisplay:10.37,2013-09-12 19:44:00,
2013-09-12 15:49:00,53.8,47.4,30.06,West,270,1.1,1.1,79,0.00,CLR,CLR,0.00,WeatherDisplay:10.37,2013-09-12 19:49:00,
2013-09-12 15:54:00,53.8,47.1,30.07,West,270,2.5,0.0,78,0.00,CLR,CLR,0.00,WeatherDisplay:10.37,2013-09-12 19:54:00,
2013-09-12 15:59:00,53.8,46.7,30.06,NNW,338,3.5,3.5,77,0.00,CLR,CLR,0.00,WeatherDisplay:10.37,2013-09-12 19:59:00,
2013-09-12 16:04:00,53.8,46.7,30.06,NW,315,2.5,2.5,77,0.00,CLR,CLR,0.00,WeatherDisplay:10.37,2013-09-12 20:04:00,
2013-09-12 16:09:00,53.8,46.7,30.07,NW,315,0.9,0.0,77,0.00,CLR,CLR,0.00,WeatherDisplay:10.37,2013-09-12 20:09:00,
2013-09-12 16:15:00,53.8,46.7,30.06,WNW,292,0.0,0.0,77,0.00,CLR,CLR,0.00,WeatherDisplay:10.37,2013-09-12 20:15:00,
2013-09-12 16:20:00,53.4,46.4,30.06,NW,315,1.1,1.1,77,0.00,CLR,CLR,0.00,WeatherDisplay:10.37,2013-09-12 20:20:00,
2013-09-12 16:25:00,53.4,46.4,30.07,NW,315,3.5,3.5,77,0.00,CLR,CLR,0.00,WeatherDisplay:10.37,2013-09-12 20:25:00,
2013-09-12 16:30:00,53.4,46.4,30.07,NW,315,1.6,1.6,77,0.00,CLR,CLR,0.00,WeatherDisplay:10.37,2013-09-12 20:30:00,
2013-09-12 16:35:00,53.4,46.4,30.08,WNW,292,2.3,2.3,77,0.00,CLR,CLR,0.00,WeatherDisplay:10.37,2013-09-12 20:35:00,
2013-09-12 16:40:00,53.2,46.2,30.08,West,270,1.1,0.0,77,0.00,CLR,CLR,0.00,WeatherDisplay:10.37,2013-09-12 20:40:00,
2013-09-12 16:45:00,52.9,45.9,30.08,WNW,292,1.3,1.3,77,0.00,CLR,CLR,0.00,WeatherDisplay:10.37,2013-09-12 20:45:00,
2013-09-12 16:50:00,52.9,45.9,30.08,WNW,292,0.0,0.0,77,0.00,CLR,CLR,0.00,WeatherDisplay:10.37,2013-09-12 20:50:00,
2013-09-12 16:55:00,52.9,45.9,30.09,NNW,338,2.3,2.3,77,0.00,CLR,CLR,0.00,WeatherDisplay:10.37,2013-09-12 20:55:00,
2013-09-12 17:00:00,52.9,45.9,30.09,WNW,292,0.0,0.0,77,0.00,CLR,CLR,0.00,WeatherDisplay:10.37,2013-09-12 21:00:00,
2013-09-12 17:05:00,52.7,45.7,30.09,NW,315,1.6,1.6,77,0.00,CLR,CLR,0.00,WeatherDisplay:10.37,2013-09-12 21:05:00,
2013-09-12 17:10:00,52.5,45.5,30.08,NNW,338,2.3,2.3,77,0.00,CLR,CLR,0.00,WeatherDisplay:10.37,2013-09-12 21:10:00,
2013-09-12 17:15:00,52.5,45.5,30.08,NW,315,2.7,2.7,77,0.00,CLR,CLR,0.00,WeatherDisplay:10.37,2013-09-12 21:15:00,
2013-09-12 17:20:00,52.5,45.2,30.09,NW,315,2.3,2.3,76,0.00,CLR,CLR,0.00,WeatherDisplay:10.37,2013-09-12 21:20:00,
2013-09-12 17:25:00,52.5,45.2,30.08,WNW,292,0.0,0.0,76,0.00,CLR,CLR,0.00,WeatherDisplay:10.37,2013-09-12 21:25:00,
2013-09-12 17:30:00,52.5,45.2,30.09,NW,315,0.0,0.0,76,0.00,CLR,CLR,0.00,WeatherDisplay:10.37,2013-09-12 21:30:00,
2013-09-12 17:35:00,52.5,44.8,30.09,NNW,338,2.5,2.5,75,0.00,CLR,CLR,0.00,WeatherDisplay:10.37,2013-09-12 21:35:00,
2013-09-12 17:40:00,52.5,45.2,30.09,NW,315,3.5,3.5,76,0.00,CLR,CLR,0.00,WeatherDisplay:10.37,2013-09-12 21:40:00,
2013-09-12 17:45:00,52.3,45.0,30.09,NNW,338,0.0,0.0,76,0.00,CLR,CLR,0.00,WeatherDisplay:10.37,2013-09-12 21:45:00,
2013-09-12 17:50:00,52.3,45.0,30.08,NW,315,2.3,2.3,76,0.00,CLR,CLR,0.00,WeatherDisplay:10.37,2013-09-12 21:50:00,
2013-09-12 17:55:00,52.5,45.2,30.09,NW,315,0.0,0.0,76,0.00,CLR,CLR,0.00,WeatherDisplay:10.37,2013-09-12 21:55:00,
2013-09-12 18:00:00,52.5,45.2,30.09,NW,315,2.3,2.3,76,0.00,CLR,CLR,0.00,WeatherDisplay:10.37,2013-09-12 22:00:00,
2013-09-12 18:05:00,52.5,45.2,30.09,NW,315,1.1,1.1,76,0.00,CLR,CLR,0.00,WeatherDisplay:10.37,2013-09-12 22:05:00,
2013-09-12 18:10:00,52.3,45.0,30.09,West,270,2.5,2.5,76,0.00,CLR,CLR,0.00,WeatherDisplay:10.37,2013-09-12 22:10:00,
2013-09-12 18:15:00,52.3,45.0,30.09,NNW,338,2.3,2.3,76,0.00,CLR,CLR,0.00,WeatherDisplay:10.37,2013-09-12 22:15:00,
2013-09-12 18:21:00,52.2,45.2,30.09,NW,315,0.0,0.0,77,0.00,CLR,CLR,0.00,WeatherDisplay:10.37,2013-09-12 22:21:00,
2013-09-12 18:26:00,52.0,45.0,30.09,North,0,0.0,0.0,77,0.00,CLR,CLR,0.00,WeatherDisplay:10.37,2013-09-12 22:26:00,
2013-09-12 18:31:00,52.0,45.0,30.09,WNW,292,1.1,1.1,77,0.00,CLR,CLR,0.00,WeatherDisplay:10.37,2013-09-12 22:31:00,
2013-09-12 18:36:00,52.0,45.0,30.09,WNW,292,0.0,0.0,77,0.00,CLR,CLR,0.00,WeatherDisplay:10.37,2013-09-12 22:36:00,
2013-09-12 18:41:00,52.0,45.0,30.09,WNW,292,1.3,1.3,77,0.00,CLR,CLR,0.00,WeatherDisplay:10.37,2013-09-12 22:41:00,
2013-09-12 18:46:00,52.0,45.0,30.09,NW,315,2.3,2.3,77,0.00,CLR,CLR,0.00,WeatherDisplay:10.37,2013-09-12 22:46:00,
2013-09-12 18:51:00,51.8,44.8,30.09,NNW,338,0.0,0.0,77,0.00,CLR,CLR,0.00,WeatherDisplay:10.37,2013-09-12 22:51:00,
2013-09-12 18:56:00,51.6,45.0,30.10,WNW,292,1.1,0.0,78,0.00,CLR,CLR,0.00,WeatherDisplay:10.37,2013-09-12 22:56:00,
2013-09-12 19:01:00,51.6,45.3,30.10,WNW,292,1.1,1.1,79,0.00,CLR,CLR,0.00,WeatherDisplay:10.37,2013-09-12 23:01:00,
2013-09-12 19:06:00,51.6,45.3,30.09,NNW,338,1.1,1.1,79,0.00,CLR,CLR,0.00,WeatherDisplay:10.37,2013-09-12 23:06:00,
2013-09-12 19:11:00,51.4,45.1,30.09,NW,315,0.0,0.0,79,0.00,CLR,CLR,0.00,WeatherDisplay:10.37,2013-09-12 23:11:00,
2013-09-12 19:16:00,51.3,45.0,30.09,West,270,1.1,1.1,79,0.00,CLR,CLR,0.00,WeatherDisplay:10.37,2013-09-12 23:16:00,
2013-09-12 19:21:00,51.1,44.8,30.09,West,270,0.0,0.0,79,0.00,CLR,CLR,0.00,WeatherDisplay:10.37,2013-09-12 23:21:00,
2013-09-12 19:26:00,50.9,44.3,30.09,NW,315,2.3,2.3,78,0.00,CLR,CLR,0.00,WeatherDisplay:10.37,2013-09-12 23:26:00,
2013-09-12 19:31:00,51.1,44.5,30.09,WNW,292,0.0,0.0,78,0.00,CLR,CLR,0.00,WeatherDisplay:10.37,2013-09-12 23:31:00,
2013-09-12 19:36:00,50.9,44.3,30.10,NW,315,2.0,2.0,78,0.00,CLR,CLR,0.00,WeatherDisplay:10.37,2013-09-12 23:36:00,
2013-09-12 19:41:00,50.7,44.4,30.09,WNW,292,0.0,0.0,79,0.00,CLR,CLR,0.00,WeatherDisplay:10.37,2013-09-12 23:41:00,
2013-09-12 19:47:00,50.5,44.3,30.10,WNW,292,0.0,0.0,79,0.00,CLR,CLR,0.00,WeatherDisplay:10.37,2013-09-12 23:47:00,
2013-09-12 19:52:00,50.2,44.2,30.10,WNW,292,0.0,0.0,80,0.00,CLR,CLR,0.00,WeatherDisplay:10.37,2013-09-12 23:52:00,
2013-09-12 19:57:00,50.2,44.2,30.10,WNW,292,1.1,1.1,80,0.00,CLR,CLR,0.00,WeatherDisplay:10.37,2013-09-12 23:57:00,
2013-09-12 20:02:00,50.2,44.2,30.10,WNW,292,0.0,0.0,80,0.00,CLR,CLR,0.00,WeatherDisplay:10.37,2013-09-13 00:02:00,
2013-09-12 20:07:00,50.2,44.2,30.09,NW,315,0.0,0.0,80,0.00,CLR,CLR,0.00,WeatherDisplay:10.37,2013-09-13 00:07:00,
2013-09-12 20:12:00,50.2,43.9,30.10,NW,315,1.1,1.1,79,0.00,CLR,CLR,0.00,WeatherDisplay:10.37,2013-09-13 00:12:00,
2013-09-12 20:17:00,50.2,43.9,30.10,NW,315,1.6,1.6,79,0.00,CLR,CLR,0.00,WeatherDisplay:10.37,2013-09-13 00:17:00,
2013-09-12 20:22:00,50.0,43.7,30.10,NW,315,1.1,1.1,79,0.00,CLR,CLR,0.00,WeatherDisplay:10.37,2013-09-13 00:22:00,
2013-09-12 20:27:00,50.2,43.9,30.10,NNW,338,1.1,1.1,79,0.00,CLR,CLR,0.00,WeatherDisplay:10.37,2013-09-13 00:27:00,
2013-09-12 20:32:00,50.2,43.9,30.10,NNW,338,1.3,1.3,79,0.00,CLR,CLR,0.00,WeatherDisplay:10.37,2013-09-13 00:32:00,
2013-09-12 20:37:00,50.2,43.9,30.10,NW,315,1.6,1.6,79,0.00,CLR,CLR,0.00,WeatherDisplay:10.37,2013-09-13 00:37:00,
2013-09-12 20:42:00,50.2,43.9,30.11,WNW,292,2.7,2.7,79,0.00,CLR,CLR,0.00,WeatherDisplay:10.37,2013-09-13 00:42:00,
2013-09-12 20:47:00,50.2,43.9,30.10,WNW,292,0.0,0.0,79,0.00,CLR,CLR,0.00,WeatherDisplay:10.37,2013-09-13 00:47:00,
2013-09-12 20:52:00,50.2,43.9,30.11,West,270,1.1,1.1,79,0.00,CLR,CLR,0.00,WeatherDisplay:10.37,2013-09-13 00:52:00,
2013-09-12 20:57:00,50.2,43.9,30.11,WNW,292,1.1,0.0,79,0.00,CLR,CLR,0.00,WeatherDisplay:10.37,2013-09-13 00:57:00,
2013-09-12 21:02:00,50.2,43.6,30.11,WNW,292,1.1,1.1,78,0.00,CLR,CLR,0.00,WeatherDisplay:10.37,2013-09-13 01:02:00,
2013-09-12 21:07:00,50.2,43.6,30.11,WNW,292,1.6,1.6,78,0.00,CLR,CLR,0.00,WeatherDisplay:10.37,2013-09-13 01:07:00,
2013-09-12 21:12:00,50.2,43.6,30.11,NNW,338,0.7,0.0,78,0.00,CLR,CLR,0.00,WeatherDisplay:10.37,2013-09-13 01:12:00,
2013-09-12 21:17:00,50.2,43.6,30.11,West,270,2.3,2.3,78,0.00,CLR,CLR,0.00,WeatherDisplay:10.37,2013-09-13 01:17:00,
2013-09-12 21:22:00,50.2,43.6,30.12,NW,315,1.1,1.2,78,0.00,CLR,CLR,0.00,WeatherDisplay:10.37,2013-09-13 01:22:00,
2013-09-12 21:27:00,50.2,43.6,30.11,WNW,292,1.1,1.1,78,0.00,CLR,CLR,0.00,WeatherDisplay:10.37,2013-09-13 01:27:00,
2013-09-12 21:32:00,50.2,43.6,30.11,NNW,338,2.3,2.3,78,0.00,CLR,CLR,0.00,WeatherDisplay:10.37,2013-09-13 01:32:00,
2013-09-12 21:37:00,50.2,43.2,30.12,NNW,338,0.0,0.0,77,0.00,CLR,CLR,0.00,WeatherDisplay:10.37,2013-09-13 01:37:00,
2013-09-12 21:42:00,50.2,43.2,30.11,NW,315,1.1,1.1,77,0.00,CLR,CLR,0.00,WeatherDisplay:10.37,2013-09-13 01:42:00,
2013-09-12 21:47:00,50.2,43.2,30.11,NNW,338,1.6,1.6,77,0.00,CLR,CLR,0.00,WeatherDisplay:10.37,2013-09-13 01:47:00,
2013-09-12 21:52:00,50.2,43.2,30.12,West,270,1.1,1.1,77,0.00,CLR,CLR,0.00,WeatherDisplay:10.37,2013-09-13 01:52:00,
2013-09-12 21:58:00,50.2,43.2,30.12,WNW,292,1.1,1.1,77,0.00,CLR,CLR,0.00,WeatherDisplay:10.37,2013-09-13 01:58:00,
2013-09-12 22:03:00,50.2,43.6,30.12,West,270,1.1,1.1,78,0.00,CLR,CLR,0.00,WeatherDisplay:10.37,2013-09-13 02:03:00,
2013-09-12 22:08:00,50.2,43.2,30.12,NNW,338,1.3,1.3,77,0.00,CLR,CLR,0.00,WeatherDisplay:10.37,2013-09-13 02:08:00,
2013-09-12 22:13:00,50.0,42.7,30.12,NNW,338,2.7,2.7,76,0.00,CLR,CLR,0.00,WeatherDisplay:10.37,2013-09-13 02:13:00,
2013-09-12 22:19:00,49.8,42.9,30.13,NW,315,2.3,2.3,77,0.00,CLR,CLR,0.00,WeatherDisplay:10.37,2013-09-13 02:19:00,
2013-09-12 22:24:00,49.8,43.2,30.13,NW,315,0.0,0.0,78,0.00,CLR,CLR,0.00,WeatherDisplay:10.37,2013-09-13 02:24:00,
2013-09-12 22:29:00,49.8,43.6,30.13,NNW,338,1.1,1.1,79,0.00,CLR,CLR,0.00,WeatherDisplay:10.37,2013-09-13 02:29:00,
2013-09-12 22:34:00,49.8,43.6,30.13,NNW,338,0.0,0.0,79,0.00,CLR,CLR,0.00,WeatherDisplay:10.37,2013-09-13 02:34:00,
2013-09-12 22:39:00,49.6,43.7,30.12,NW,315,0.0,0.0,80,0.00,CLR,CLR,0.00,WeatherDisplay:10.37,2013-09-13 02:39:00,
2013-09-12 22:44:00,49.6,44.0,30.12,NW,315,0.0,0.0,81,0.00,CLR,CLR,0.00,WeatherDisplay:10.37,2013-09-13 02:44:00,
2013-09-12 22:49:00,49.6,44.0,30.12,NW,315,1.1,0.0,81,0.00,CLR,CLR,0.00,WeatherDisplay:10.37,2013-09-13 02:49:00,
2013-09-12 22:54:00,49.6,44.0,30.12,NE,45,0.0,0.0,81,0.00,CLR,CLR,0.00,WeatherDisplay:10.37,2013-09-13 02:54:00,
2013-09-12 22:59:00,49.6,44.0,30.12,WNW,292,1.1,1.1,81,0.00,CLR,CLR,0.00,WeatherDisplay:10.37,2013-09-13 02:59:00,
2013-09-12 23:04:00,49.6,44.0,30.12,WNW,292,0.0,0.0,81,0.00,CLR,CLR,0.00,WeatherDisplay:10.37,2013-09-13 03:04:00,
2013-09-12 23:09:00,49.6,44.0,30.12,North,0,0.0,0.0,81,0.00,CLR,CLR,0.00,WeatherDisplay:10.37,2013-09-13 03:09:00,
2013-09-12 23:14:00,49.6,43.7,30.12,NNW,338,1.6,1.6,80,0.00,CLR,CLR,0.00,WeatherDisplay:10.37,2013-09-13 03:14:00,
2013-09-12 23:19:00,49.6,43.7,30.12,NW,315,0.0,0.0,80,0.00,CLR,CLR,0.00,WeatherDisplay:10.37,2013-09-13 03:19:00,
2013-09-12 23:24:00,49.8,43.9,30.12,NNW,338,1.3,1.3,80,0.00,CLR,CLR,0.00,WeatherDisplay:10.37,2013-09-13 03:24:00,
2013-09-12 23:29:00,49.8,43.6,30.12,West,270,0.0,0.0,79,0.00,CLR,CLR,0.00,WeatherDisplay:10.37,2013-09-13 03:29:00,
2013-09-12 23:34:00,49.8,43.6,30.12,WNW,292,0.0,0.0,79,0.00,CLR,CLR,0.00,WeatherDisplay:10.37,2013-09-13 03:34:00,
2013-09-12 23:39:00,49.8,43.6,30.12,NW,315,2.5,2.5,79,0.00,CLR,CLR,0.00,WeatherDisplay:10.37,2013-09-13 03:39:00,
2013-09-12 23:44:00,49.8,43.2,30.13,NNW,338,0.0,0.0,78,0.00,CLR,CLR,0.00,WeatherDisplay:10.37,2013-09-13 03:44:00,
2013-09-12 23:49:00,49.8,43.2,30.13,NNW,338,0.0,0.0,78,0.00,CLR,CLR,0.00,WeatherDisplay:10.37,2013-09-13 03:49:00,
2013-09-12 23:54:00,49.6,43.1,30.13,WNW,292,2.3,2.3,78,0.00,CLR,CLR,0.00,WeatherDisplay:10.37,2013-09-13 03:54:00,
2013-09-12 23:59:00,49.6,43.1,30.13,NW,315,1.1,1.1,78,0.00,CLR,CLR,0.00,WeatherDisplay:10.37,2013-09-13 03:59:00,